This demonstration page uses our WeatherBlox Daily Observations layout. Learn more.

Left ArrowRight Arrow

31.84235, -102.49876

Hourly Observations for May 2, 2022

Temp ( °F °C ) Dew Point ( °F °C ) Humidity (%) Winds ( mph kmh ) Pressure ( in mb ) Visibility ( mi km ) Precip ( " mm )
12:53 am 00:53 Clear 71 21.7 60 15.6 68 68 S 18 30 29.66 1005 9 14 0.00 0.00
1:53 am 01:53 Clear 71 21.7 61 16.1 71 71 S 16 26 29.67 1005 8 13 0.00 0.00
2:53 am 02:53 Clear 70 21.1 61 16.1 73 73 SSW 16 26 29.67 1005 8 13 0.00 0.00
3:53 am 03:53 Partly Cloudy 69 20.6 62 16.7 78 78 S 18 30 29.67 1005 9 14 0.00 0.00
4:05 am 04:05 Mostly Cloudy 69 20.6 63 17.2 81 81 S 17 28 29.69 1006 9 14 0.00 0.00
4:53 am 04:53 Cloudy 70 21.1 63 17.2 79 79 SSW 23 37 29.67 1005 10 16 0.00 0.00
5:51 am 05:51 Cloudy 70 21 63 17 78 78 SSW 17 28 29.69 1005 10 16 0.00 0.00
5:53 am 05:53 Cloudy 69 20.6 63 17.2 81 81 SSW 22 35 29.69 1005 10 16 0.00 0.00
6:53 am 06:53 Mostly Cloudy 68 20 64 17.8 87 87 SSW 22 35 29.70 1006 10 16 0.00 0.00
7:44 am 07:44 Partly Cloudy 67 19.4 64 17.8 91 91 SSW 17 28 29.73 1007 7 11 0.00 0.00
7:53 am 07:53 Mostly Sunny 68 20 64 17.8 87 87 SSW 17 28 29.72 1006 7 11 0.00 0.00
8:53 am 08:53 Sunny 71 21.7 64 17.8 79 79 SSW 20 31 29.73 1007 8 13 0.00 0.00
9:53 am 09:53 Sunny 76 24.4 60 15.6 58 58 SW 20 31 29.73 1007 10 16 0.00 0.00
10:53 am 10:53 Sunny 80 26.7 49 9.4 34 34 WSW 18 30 29.72 1006 10 16 0.00 0.00
11:53 am 11:53 Sunny 86 30 35 1.7 16 16 WSW 15 24 29.70 1006 10 16 0.00 0.00
12:53 pm 12:53 Sunny 89 31.7 23 -5 9 9 WSW 14 22 29.68 1005 10 16 0.00 0.00
1:53 pm 13:53 Sunny 91 32.8 20 -6.7 7 7 WSW 16 26 29.66 1004 10 16 0.00 0.00
2:53 pm 14:53 Sunny 92 33.3 20 -6.7 7 7 SW 24 39 29.64 1004 10 16 0.00 0.00
3:53 pm 15:53 Sunny 92 33.3 20 -6.7 7 7 SW 16 26 29.62 1003 10 16 0.00 0.00
4:53 pm 16:53 Sunny 93 33.9 19 -7.2 7 7 W 15 24 29.59 1002 10 16 0.00 0.00
5:53 pm 17:53 Sunny 93 33.9 19 -7.2 7 7 WSW 23 37 29.59 1002 10 16 0.00 0.00
6:53 pm 18:53 Sunny 92 33.3 18 -7.8 6 6 W 21 33 29.59 1002 10 16 0.00 0.00
7:53 pm 19:53 Sunny 90 32.2 18 -7.8 7 7 WSW 16 26 29.61 1003 10 16 0.00 0.00
8:53 pm 20:53 Clear 85 29.4 17 -8.3 8 8 WSW 9 15 29.64 1004 10 16 0.00 0.00
9:53 pm 21:53 Clear 80 26.7 18 -7.8 10 10 W 8 13 29.66 1005 10 16 0.00 0.00
10:53 pm 22:53 Clear 79 26.1 17 -8.3 10 10 W 10 17 29.67 1005 10 16 0.00 0.00
11:53 pm 23:53 Clear 78 25.6 17 -8.3 10 10 W 12 19 29.67 1005 10 16 0.00 0.00

Powered by AerisWeather